,,PA_Meas_PMT16A,,PR_Meas_QMR101_102,,RH_Meas_QMH101,,SR_Meas_QMS101,,TA_Meas_QMH101,,GenWind,,GenWind,
time,status,PA,status,PR,status,RH,status,SR,status,TA,status,DirAvg,status,SpdAvg,
2014-04-27, 00:00:04,VALID,918.249,VALID,0,VALID,96.8631,VALID,0,VALID,19.6053,VALID,151,VALID,0.891797,
2014-04-27, 00:01:04,VALID,918.266,VALID,0,VALID,96.8784,VALID,0,VALID,19.6068,VALID,151,VALID,1.14414,
2014-04-27, 00:02:04,VALID,918.21,VALID,0,VALID,96.8784,VALID,0.107441,VALID,19.6053,VALID,151,VALID,1.03203,
2014-04-27, 00:03:04,VALID,918.189,VALID,0,VALID,96.8631,VALID,0,VALID,19.6053,VALID,151,VALID,1.0793,
2014-04-27, 00:04:04,VALID,918.2,VALID,0,VALID,96.8631,VALID,0,VALID,19.5858,VALID,151,VALID,0.851172,
2014-04-27, 00:05:04,VALID,918.164,VALID,0,VALID,96.8403,VALID,0,VALID,19.6263,VALID,151,VALID,0.912109,
2014-04-27, 00:06:04,VALID,918.152,VALID,0,VALID,96.8403,VALID,0,VALID,19.6458,VALID,151,VALID,0.911719,
2014-04-27, 00:07:04,VALID,918.12,VALID,0,VALID,96.8326,VALID,0,VALID,19.6443,VALID,151,VALID,0.852734,
2014-04-27, 00:08:04,VALID,918.104,VALID,0,VALID,96.825,VALID,0.107441,VALID,19.5858,VALID,151,VALID,0.857813,
2014-04-27, 00:09:04,VALID,918.11,VALID,0,VALID,96.825,VALID,0,VALID,19.6443,VALID,151,VALID,0.816406,
2014-04-27, 00:10:04,VALID,918.091,VALID,0,VALID,96.8098,VALID,0,VALID,19.5858,VALID,151,VALID,0.755469,
2014-04-27, 00:11:04,VALID,918.073,VALID,0,VALID,96.8174,VALID,0.107441,VALID,19.6053,VALID,151,VALID,0.607031,
2014-04-27, 00:12:04,VALID,918.079,VALID,0,VALID,96.825,VALID,0,VALID,19.6053,VALID,151,VALID,0.579297,
2014-04-27, 00:13:04,VALID,918.055,VALID,0,VALID,96.8098,VALID,0,VALID,19.5678,VALID,151,VALID,0.950781,
2014-04-27, 00:14:04,VALID,918.044,VALID,0,VALID,96.8098,VALID,0,VALID,19.6083,VALID,146,VALID,1.05938,
2014-04-27, 00:15:04,VALID,918.03,VALID,0,VALID,96.7945,VALID,0,VALID,19.6263,VALID,146,VALID,0.994531,
2014-04-27, 00:16:04,VALID,918.02,VALID,0,VALID,96.7869,VALID,0,VALID,19.6458,VALID,149,VALID,0.792188,
2014-04-27, 00:17:04,VALID,917.978,VALID,0,VALID,96.7793,VALID,0,VALID,19.6653,VALID,144,VALID,0.989062,
2014-04-27, 00:18:04,VALID,917.969,VALID,0,VALID,96.764,VALID,0,VALID,19.6653,VALID,145,VALID,1.35,
2014-04-27, 00:19:04,VALID,917.921,VALID,0,VALID,96.7488,VALID,0,VALID,19.6458,VALID,140,VALID,1.22461,
2014-04-27, 00:20:04,VALID,917.925,VALID,0,VALID,96.7564,VALID,0,VALID,19.6653,VALID,139,VALID,1.38086,
2014-04-27, 00:21:04,VALID,917.868,VALID,0,VALID,96.7335,VALID,0,VALID,19.6653,VALID,141,VALID,1.42305,
2014-04-27, 00:22:04,VALID,917.84,VALID,0,VALID,96.7411,VALID,0,VALID,19.6848,VALID,138,VALID,1.40703,
2014-04-27, 00:23:04,VALID,917.805,VALID,0,VALID,96.7259,VALID,0,VALID,19.6668,VALID,154,VALID,1.25,
2014-04-27, 00:24:04,VALID,917.828,VALID,0,VALID,96.7335,VALID,0,VALID,19.6263,VALID,156,VALID,1.50352,
2014-04-27, 00:25:04,VALID,917.831,VALID,0,VALID,96.7335,VALID,0,VALID,19.6263,VALID,147,VALID,1.15195,
2014-04-27, 00:26:04,VALID,917.798,VALID,0,VALID,96.7411,VALID,0,VALID,19.6068,VALID,149,VALID,1.56523,
2014-04-27, 00:27:04,VALID,917.812,VALID,0,VALID,96.7335,VALID,0,VALID,19.6458,VALID,159,VALID,1.30742,
2014-04-27, 00:28:04,VALID,917.837,VALID,0,VALID,96.7411,VALID,0,VALID,19.6263,VALID,141,VALID,1.27695,
2014-04-27, 00:29:04,VALID,917.836,VALID,0,VALID,96.7411,VALID,0,VALID,19.6653,VALID,141,VALID,1.39844,
2014-04-27, 00:30:04,VALID,917.851,VALID,0,VALID,96.7411,VALID,0,VALID,19.6458,VALID,130,VALID,1.70234,
2014-04-27, 00:31:04,VALID,917.862,VALID,0,VALID,96.7488,VALID,0,VALID,19.6848,VALID,140,VALID,1.40547,
2014-04-27, 00:32:04,VALID,917.873,VALID,0,VALID,96.7335,VALID,0,VALID,19.6653,VALID,153,VALID,1.07852,
2014-04-27, 00:33:04,VALID,917.884,VALID,0,VALID,96.764,VALID,0,VALID,19.7043,VALID,149,VALID,1.16406,
2014-04-27, 00:34:04,VALID,917.898,VALID,0,VALID,96.7259,VALID,0,VALID,19.7043,VALID,129,VALID,1.04258,
2014-04-27, 00:35:04,VALID,917.876,VALID,0,VALID,96.7488,VALID,0,VALID,19.6458,VALID,117,VALID,1.15586,
2014-04-27, 00:36:04,VALID,917.869,VALID,0,VALID,96.7488,VALID,0,VALID,19.7238,VALID,123,VALID,1.32578,
2014-04-27, 00:37:04,VALID,917.873,VALID,0,VALID,96.7411,VALID,0,VALID,19.7253,VALID,127,VALID,1.29766,
2014-04-27, 00:38:04,VALID,917.886,VALID,0,VALID,96.7488,VALID,0,VALID,19.7238,VALID,134,VALID,1.05313,
2014-04-27, 00:39:04,VALID,917.873,VALID,0,VALID,96.7411,VALID,0,VALID,19.7043,VALID,142,VALID,1.16797,
2014-04-27, 00:40:04,VALID,917.883,VALID,0,VALID,96.7411,VALID,0,VALID,19.7823,VALID,137,VALID,1.40117,
2014-04-27, 00:41:04,VALID,917.85,VALID,0,VALID,96.7488,VALID,0,VALID,19.7628,VALID,123,VALID,1.19766,
2014-04-27, 00:42:04,VALID,917.885,VALID,0,VALID,96.7564,VALID,0,VALID,19.7238,VALID,127,VALID,1.06289,
2014-04-27, 00:43:04,VALID,917.907,VALID,0,VALID,96.7411,VALID,0,VALID,19.7628,VALID,132,VALID,1.17305,
2014-04-27, 00:44:04,VALID,917.892,VALID,0,VALID,96.7183,VALID,0,VALID,19.7433,VALID,131,VALID,1.15664,
2014-04-27, 00:45:04,VALID,917.894,VALID,0,VALID,96.7259,VALID,0,VALID,19.8018,VALID,123,VALID,1.10039,
2014-04-27, 00:46:04,VALID,917.907,VALID,0,VALID,96.7259,VALID,0,VALID,19.8033,VALID,128,VALID,0.963672,
2014-04-27, 00:47:04,VALID,917.912,VALID,0,VALID,96.7183,VALID,0,VALID,19.7628,VALID,140,VALID,0.674609,
2014-04-27, 00:48:04,VALID,917.903,VALID,0,VALID,96.7107,VALID,0,VALID,19.8018,VALID,128,VALID,1.24883,
2014-04-27, 00:49:04,VALID,917.887,VALID,0,VALID,96.7107,VALID,0,VALID,19.8213,VALID,120,VALID,1.01094,
2014-04-27, 00:50:04,VALID,917.875,VALID,0,VALID,96.7107,VALID,0,VALID,19.8408,VALID,131,VALID,0.842578,
2014-04-27, 00:51:04,VALID,917.863,VALID,0,VALID,96.6802,VALID,0,VALID,19.7823,VALID,128,VALID,0.910547,
2014-04-27, 00:52:04,VALID,917.835,VALID,0,VALID,96.6878,VALID,0,VALID,19.8408,VALID,119,VALID,1.13125,
2014-04-27, 00:53:04,VALID,917.826,VALID,0,VALID,96.6725,VALID,0,VALID,19.8408,VALID,117,VALID,0.717578,
2014-04-27, 00:54:04,VALID,917.813,VALID,0,VALID,96.6725,VALID,0,VALID,19.8213,VALID,114,VALID,1.33828,
2014-04-27, 00:55:04,VALID,917.811,VALID,0,VALID,96.6802,VALID,0,VALID,19.8018,VALID,112,VALID,1.00977,
2014-04-27, 00:56:04,VALID,917.778,VALID,0,VALID,96.6497,VALID,0,VALID,19.7823,VALID,135,VALID,1.19141,
2014-04-27, 00:57:04,VALID,917.764,VALID,0,VALID,96.6344,VALID,0,VALID,19.8213,VALID,115,VALID,1.22422,
2014-04-27, 00:58:04,VALID,917.755,VALID,0,VALID,96.642,VALID,0,VALID,19.7823,VALID,114,VALID,1.22812,
2014-04-27, 00:59:04,VALID,917.746,VALID,0,VALID,96.6115,VALID,0,VALID,19.7628,VALID,113,VALID,0.710938,
2014-04-27, 01:00:04,VALID,917.771,VALID,0,VALID,96.6192,VALID,0,VALID,19.7628,VALID,118,VALID,1.25586,
2014-04-27, 01:01:04,VALID,917.733,VALID,0,VALID,96.6115,VALID,0,VALID,19.7628,VALID,131,VALID,1.16836,
2014-04-27, 01:02:04,VALID,917.761,VALID,0,VALID,96.5811,VALID,0,VALID,19.8018,VALID,133,VALID,1.36953,
2014-04-27, 01:03:04,VALID,917.725,VALID,0,VALID,96.5963,VALID,0,VALID,19.7823,VALID,133,VALID,0.998047,
2014-04-27, 01:04:04,VALID,917.7,VALID,0,VALID,96.5811,VALID,0,VALID,19.7823,VALID,118,VALID,0.865625,
2014-04-27, 01:05:04,VALID,917.643,VALID,0,VALID,96.5811,VALID,0,VALID,19.8213,VALID,121,VALID,1.53047,
2014-04-27, 01:06:04,VALID,917.637,VALID,0,VALID,96.5811,VALID,0,VALID,19.8423,VALID,123,VALID,1.12578,
2014-04-27, 01:07:04,VALID,917.613,VALID,0,VALID,96.5734,VALID,0,VALID,19.8408,VALID,124,VALID,1.28477,
2014-04-27, 01:08:04,VALID,917.582,VALID,0,VALID,96.5429,VALID,0,VALID,19.8198,VALID,135,VALID,1.24297,
2014-04-27, 01:09:04,VALID,917.554,VALID,0,VALID,96.5124,VALID,0,VALID,19.8018,VALID,144,VALID,1.39453,
2014-04-27, 01:10:04,VALID,917.557,VALID,0,VALID,96.5124,VALID,0,VALID,19.7628,VALID,147,VALID,1.43789,
2014-04-27, 01:11:04,VALID,917.522,VALID,0,VALID,96.4896,VALID,0,VALID,19.7223,VALID,145,VALID,1.80859,
2014-04-27, 01:12:04,VALID,917.5,VALID,0,VALID,96.4972,VALID,0,VALID,19.7628,VALID,141,VALID,1.71875,
2014-04-27, 01:13:04,VALID,917.52,VALID,0,VALID,96.4667,VALID,0,VALID,19.7238,VALID,136,VALID,1.12695,
2014-04-27, 01:14:04,VALID,917.477,VALID,0,VALID,96.4515,VALID,0,VALID,19.7043,VALID,137,VALID,1.2043,
2014-04-27, 01:15:04,VALID,917.469,VALID,0,VALID,96.421,VALID,0,VALID,19.7043,VALID,130,VALID,1.07891,
2014-04-27, 01:16:04,VALID,917.481,VALID,0,VALID,96.3829,VALID,0,VALID,19.7433,VALID,146,VALID,1.09687,
2014-04-27, 01:17:04,VALID,917.428,VALID,0,VALID,96.3524,VALID,0,VALID,19.7043,VALID,143,VALID,1.40977,
2014-04-27, 01:18:04,VALID,917.438,VALID,0,VALID,96.3447,VALID,0,VALID,19.6848,VALID,127,VALID,1.25977,
2014-04-27, 01:19:04,VALID,917.422,VALID,0,VALID,96.3142,VALID,0,VALID,19.6653,VALID,139,VALID,1.55352,
2014-04-27, 01:20:04,VALID,917.405,VALID,0,VALID,96.2837,VALID,0,VALID,19.6653,VALID,144,VALID,1.29883,
2014-04-27, 01:21:04,VALID,917.372,VALID,0,VALID,96.2533,VALID,0,VALID,19.6458,VALID,129,VALID,1.00781,
2014-04-27, 01:22:04,VALID,917.393,VALID,0,VALID,96.2456,VALID,0,VALID,19.5663,VALID,138,VALID,1.00156,
2014-04-27, 01:23:04,VALID,917.406,VALID,0,VALID,96.2228,VALID,0,VALID,19.5873,VALID,143,VALID,0.891406,
2014-04-27, 01:24:04,VALID,917.409,VALID,0,VALID,96.1923,VALID,0,VALID,19.5873,VALID,141,VALID,0.641016,
2014-04-27, 01:25:04,VALID,917.386,VALID,0,VALID,96.1465,VALID,0,VALID,19.5663,VALID,151,VALID,0.964063,
2014-04-27, 01:26:04,VALID,917.423,VALID,0,VALID,96.1313,VALID,0,VALID,19.5873,VALID,151,VALID,0.803125,
2014-04-27, 01:27:04,VALID,917.388,VALID,0,VALID,96.1084,VALID,0,VALID,19.5678,VALID,151,VALID,0.903125,
2014-04-27, 01:28:04,VALID,917.362,VALID,0,VALID,96.0855,VALID,0,VALID,19.5093,VALID,139,VALID,0.768359,
2014-04-27, 01:29:04,VALID,917.353,VALID,0,VALID,96.0398,VALID,0,VALID,19.5483,VALID,139,VALID,0.857031,
2014-04-27, 01:30:04,VALID,917.329,VALID,0,VALID,96.0093,VALID,0,VALID,19.5093,VALID,139,VALID,0.957812,
2014-04-27, 01:31:04,VALID,917.298,VALID,0,VALID,95.9788,VALID,0,VALID,19.5288,VALID,157,VALID,1.21602,
2014-04-27, 01:32:04,VALID,917.284,VALID,0,VALID,95.9407,VALID,0,VALID,19.5288,VALID,166,VALID,0.771875,
2014-04-27, 01:33:04,VALID,917.283,VALID,0,VALID,95.9178,VALID,0,VALID,19.5288,VALID,149,VALID,1.15703,
2014-04-27, 01:34:04,VALID,917.257,VALID,0,VALID,95.895,VALID,0,VALID,19.5288,VALID,149,VALID,1.2332,
2014-04-27, 01:35:04,VALID,917.238,VALID,0,VALID,95.8492,VALID,0,VALID,19.5093,VALID,146,VALID,1.16133,
2014-04-27, 01:36:04,VALID,917.208,VALID,0,VALID,95.7806,VALID,0,VALID,19.5288,VALID,144,VALID,1.24258,
2014-04-27, 01:37:04,VALID,917.233,VALID,0,VALID,95.7272,VALID,0,VALID,19.5288,VALID,141,VALID,1.59961,
2014-04-27, 01:38:04,VALID,917.214,VALID,0,VALID,95.6357,VALID,0,VALID,19.5873,VALID,144,VALID,1.37656,
2014-04-27, 01:39:04,VALID,917.196,VALID,0,VALID,95.5595,VALID,0,VALID,19.6068,VALID,142,VALID,1.08047,
2014-04-27, 01:40:04,VALID,917.196,VALID,0,VALID,95.4223,VALID,0,VALID,19.6263,VALID,132,VALID,1.28984,
2014-04-27, 01:41:04,VALID,917.156,VALID,0,VALID,95.2775,VALID,0,VALID,19.6263,VALID,126,VALID,0.947266,
2014-04-27, 01:42:04,VALID,917.157,VALID,0,VALID,95.1555,VALID,0,VALID,19.5873,VALID,116,VALID,0.513281,
2014-04-27, 01:43:04,VALID,917.166,VALID,0,VALID,95.0792,VALID,0,VALID,19.5678,VALID,116,VALID,0.614844,
2014-04-27, 01:44:04,VALID,917.148,VALID,0,VALID,95.0183,VALID,0,VALID,19.5873,VALID,123,VALID,0.590234,
2014-04-27, 01:45:04,VALID,917.14,VALID,0,VALID,94.9649,VALID,0,VALID,19.5483,VALID,123,VALID,0.789844,
2014-04-27, 01:46:04,VALID,917.143,VALID,0,VALID,94.9192,VALID,0,VALID,19.5483,VALID,124,VALID,0.650781,
2014-04-27, 01:47:04,VALID,917.122,VALID,0,VALID,94.8963,VALID,0,VALID,19.5678,VALID,125,VALID,0.796094,
2014-04-27, 01:48:04,VALID,917.129,VALID,0,VALID,94.8887,VALID,0,VALID,19.5678,VALID,129,VALID,1.06016,
2014-04-27, 01:49:04,VALID,917.101,VALID,0,VALID,94.881,VALID,0,VALID,19.5678,VALID,120,VALID,1.33164,
2014-04-27, 01:50:04,VALID,917.07,VALID,0,VALID,94.8505,VALID,0,VALID,19.6083,VALID,112,VALID,1.15195,
2014-04-27, 01:51:04,VALID,917.039,VALID,0,VALID,94.8505,VALID,0,VALID,19.5678,VALID,125,VALID,1.21406,
2014-04-27, 01:52:05,VALID,917.027,VALID,0,VALID,94.8277,VALID,0,VALID,19.5483,VALID,135,VALID,0.866797,
2014-04-27, 01:53:05,VALID,917.026,VALID,0,VALID,94.8429,VALID,0,VALID,19.5678,VALID,138,VALID,1.08594,
2014-04-27, 01:54:05,VALID,916.962,VALID,0,VALID,94.9115,VALID,0,VALID,19.4898,VALID,145,VALID,1.42617,
2014-04-27, 01:55:05,VALID,916.924,VALID,0,VALID,95.0106,VALID,0,VALID,19.5288,VALID,144,VALID,1.37461,
2014-04-27, 01:56:05,VALID,916.912,VALID,0,VALID,95.1326,VALID,0,VALID,19.4313,VALID,135,VALID,0.930078,
2014-04-27, 01:57:05,VALID,916.891,VALID,0,VALID,95.2317,VALID,0,VALID,19.4523,VALID,141,VALID,1.10859,
2014-04-27, 01:58:05,VALID,916.87,VALID,0,VALID,95.3766,VALID,0,VALID,19.4493,VALID,138,VALID,1.57969,
2014-04-27, 01:59:05,VALID,916.891,VALID,0,VALID,95.4833,VALID,0,VALID,19.3908,VALID,139,VALID,0.919141,
2014-04-27, 02:00:05,VALID,916.874,VALID,0,VALID,95.5671,VALID,0,VALID,19.4103,VALID,137,VALID,0.683984,
2014-04-27, 02:01:05,VALID,916.873,VALID,0,VALID,95.6281,VALID,0,VALID,19.3908,VALID,144,VALID,0.814062,
2014-04-27, 02:02:05,VALID,916.834,VALID,0,VALID,95.6967,VALID,0.107441,VALID,19.4103,VALID,142,VALID,0.526953,
2014-04-27, 02:03:05,VALID,916.816,VALID,0,VALID,95.7349,VALID,0,VALID,19.4103,VALID,136,VALID,0.610547,
2014-04-27, 02:04:05,VALID,916.816,VALID,0,VALID,95.7882,VALID,0,VALID,19.4103,VALID,138,VALID,0.560156,
2014-04-27, 02:05:05,VALID,916.84,VALID,0,VALID,95.8187,VALID,0,VALID,19.3518,VALID,140,VALID,1.05664,
2014-04-27, 02:06:05,VALID,916.834,VALID,0,VALID,95.8492,VALID,0,VALID,19.4118,VALID,143,VALID,0.787109,
2014-04-27, 02:07:05,VALID,916.837,VALID,0,VALID,95.8873,VALID,0,VALID,19.4103,VALID,147,VALID,0.993359,
2014-04-27, 02:08:05,VALID,916.831,VALID,0,VALID,95.9178,VALID,0,VALID,19.4103,VALID,147,VALID,0.938281,
2014-04-27, 02:09:05,VALID,916.82,VALID,0,VALID,95.9788,VALID,0,VALID,19.3518,VALID,145,VALID,0.682031,
2014-04-27, 02:10:05,VALID,916.809,VALID,0,VALID,96.0169,VALID,0,VALID,19.3713,VALID,143,VALID,0.850781,
2014-04-27, 02:11:05,VALID,916.818,VALID,0,VALID,96.0398,VALID,0,VALID,19.3713,VALID,153,VALID,0.569922,
2014-04-27, 02:12:05,VALID,916.8,VALID,0,VALID,96.1008,VALID,0,VALID,19.4508,VALID,138,VALID,0.528516,
2014-04-27, 02:13:05,VALID,916.825,VALID,0,VALID,96.1313,VALID,0,VALID,19.4313,VALID,139,VALID,0.853516,
2014-04-27, 02:14:05,VALID,916.824,VALID,0,VALID,96.1389,VALID,0,VALID,19.4898,VALID,118,VALID,0.683594,
2014-04-27, 02:15:05,VALID,916.846,VALID,0,VALID,96.1618,VALID,0,VALID,19.4493,VALID,117,VALID,0.585156,
2014-04-27, 02:16:05,VALID,916.807,VALID,0,VALID,96.1694,VALID,0,VALID,19.4898,VALID,96,VALID,1.12969,
2014-04-27, 02:17:05,VALID,916.819,VALID,0,VALID,96.1694,VALID,0,VALID,19.4703,VALID,86,VALID,0.821094,
2014-04-27, 02:18:05,VALID,916.768,VALID,0,VALID,96.177,VALID,0,VALID,19.5108,VALID,87,VALID,1.05586,
2014-04-27, 02:19:05,VALID,916.757,VALID,0,VALID,96.1846,VALID,0,VALID,19.4898,VALID,100,VALID,1.27031,
2014-04-27, 02:20:05,VALID,916.756,VALID,0,VALID,96.1999,VALID,0,VALID,19.5093,VALID,98,VALID,1.64375,
2014-04-27, 02:21:05,VALID,916.745,VALID,0,VALID,96.1999,VALID,0,VALID,19.5108,VALID,97,VALID,1.16797,
2014-04-27, 02:22:05,VALID,916.728,VALID,0,VALID,96.1999,VALID,0,VALID,19.5288,VALID,110,VALID,1.14844,
2014-04-27, 02:23:05,VALID,916.729,VALID,0,VALID,96.177,VALID,0,VALID,19.4703,VALID,89,VALID,1.26328,
2014-04-27, 02:24:05,VALID,916.699,VALID,0,VALID,96.1541,VALID,0,VALID,19.4898,VALID,89,VALID,1.15078,
2014-04-27, 02:25:05,VALID,916.71,VALID,0,VALID,96.1618,VALID,0,VALID,19.4703,VALID,104,VALID,1.42188,
2014-04-27, 02:26:05,VALID,916.709,VALID,0,VALID,96.1923,VALID,0,VALID,19.5108,VALID,112,VALID,1.07148,
2014-04-27, 02:27:05,VALID,916.728,VALID,0,VALID,96.1846,VALID,0,VALID,19.5093,VALID,116,VALID,1.25039,
2014-04-27, 02:28:05,VALID,916.696,VALID,0,VALID,96.2075,VALID,0,VALID,19.5483,VALID,129,VALID,1.39336,
2014-04-27, 02:29:05,VALID,916.689,VALID,0,VALID,96.1999,VALID,0,VALID,19.4898,VALID,122,VALID,0.980078,
2014-04-27, 02:30:05,VALID,916.674,VALID,0,VALID,96.1999,VALID,0,VALID,19.5288,VALID,121,VALID,0.949219,
2014-04-27, 02:31:05,VALID,916.643,VALID,0,VALID,96.1923,VALID,0,VALID,19.4703,VALID,131,VALID,0.742969,
2014-04-27, 02:32:05,VALID,916.598,VALID,0,VALID,96.1923,VALID,0,VALID,19.5093,VALID,134,VALID,1.15508,
2014-04-27, 02:33:05,VALID,916.571,VALID,0,VALID,96.1846,VALID,0,VALID,19.4898,VALID,134,VALID,1.31797,
2014-04-27, 02:34:05,VALID,916.55,VALID,0,VALID,96.2075,VALID,0,VALID,19.5093,VALID,128,VALID,0.767578,
2014-04-27, 02:35:05,VALID,916.569,VALID,0,VALID,96.1923,VALID,0,VALID,19.4703,VALID,139,VALID,0.904688,
2014-04-27, 02:36:05,VALID,916.523,VALID,0,VALID,96.2075,VALID,0,VALID,19.5093,VALID,130,VALID,1.15391,
2014-04-27, 02:37:05,VALID,916.506,VALID,0,VALID,96.1846,VALID,0,VALID,19.4703,VALID,123,VALID,0.792578,
2014-04-27, 02:38:05,VALID,916.471,VALID,0,VALID,96.2075,VALID,0,VALID,19.4703,VALID,134,VALID,0.716406,
2014-04-27, 02:39:05,VALID,916.465,VALID,0,VALID,96.1999,VALID,0,VALID,19.5093,VALID,132,VALID,1.20742,
2014-04-27, 02:40:05,VALID,916.448,VALID,0,VALID,96.1999,VALID,0,VALID,19.5108,VALID,123,VALID,0.925781,
2014-04-27, 02:41:05,VALID,916.457,VALID,0,VALID,96.1923,VALID,0,VALID,19.4898,VALID,139,VALID,1.11953,
2014-04-27, 02:42:05,VALID,916.444,VALID,0,VALID,96.1541,VALID,0,VALID,19.4718,VALID,136,VALID,1.07227,
2014-04-27, 02:43:05,VALID,916.396,VALID,0,VALID,96.1618,VALID,0.107441,VALID,19.4898,VALID,139,VALID,1.18867,
2014-04-27, 02:44:05,VALID,916.38,VALID,0,VALID,96.1541,VALID,0,VALID,19.4493,VALID,139,VALID,0.894531,
2014-04-27, 02:45:05,VALID,916.367,VALID,0,VALID,96.1236,VALID,0.107441,VALID,19.4298,VALID,127,VALID,0.940625,
2014-04-27, 02:46:05,VALID,916.338,VALID,0,VALID,96.116,VALID,0.107441,VALID,19.4313,VALID,130,VALID,1.11172,
2014-04-27, 02:47:05,VALID,916.351,VALID,0,VALID,96.0932,VALID,0,VALID,19.3518,VALID,121,VALID,0.855078,
2014-04-27, 02:48:05,VALID,916.323,VALID,0,VALID,96.0322,VALID,0,VALID,19.3713,VALID,129,VALID,0.662891,
2014-04-27, 02:49:05,VALID,916.319,VALID,0,VALID,96.0093,VALID,0.107441,VALID,19.3323,VALID,131,VALID,1.2375,
2014-04-27, 02:50:05,VALID,916.328,VALID,0,VALID,95.9864,VALID,0,VALID,19.3338,VALID,116,VALID,1.10312,
2014-04-27, 02:51:05,VALID,916.312,VALID,0,VALID,95.9559,VALID,0.107441,VALID,19.3323,VALID,125,VALID,0.619141,
2014-04-27, 02:52:05,VALID,916.311,VALID,0,VALID,95.9102,VALID,0,VALID,19.3533,VALID,116,VALID,0.986328,
2014-04-27, 02:53:05,VALID,916.317,VALID,0,VALID,95.8568,VALID,0.107441,VALID,19.3128,VALID,114,VALID,0.655469,
2014-04-27, 02:54:05,VALID,916.333,VALID,0,VALID,95.8111,VALID,0,VALID,19.2933,VALID,113,VALID,0.537109,
2014-04-27, 02:55:05,VALID,916.338,VALID,0,VALID,95.7806,VALID,0,VALID,19.2738,VALID,110,VALID,0.662891,
2014-04-27, 02:56:05,VALID,916.354,VALID,0,VALID,95.7654,VALID,0,VALID,19.2543,VALID,110,VALID,0.542188,
2014-04-27, 02:57:05,VALID,916.391,VALID,0,VALID,95.7654,VALID,0.107441,VALID,19.2153,VALID,110,VALID,0.503516,
2014-04-27, 02:58:05,VALID,916.389,VALID,0,VALID,95.7501,VALID,0.107441,VALID,19.2153,VALID,110,VALID,0.501172,
2014-04-27, 02:59:05,VALID,916.394,VALID,0,VALID,95.7806,VALID,0,VALID,19.2153,VALID,110,VALID,0.523828,
2014-04-27, 03:00:05,VALID,916.414,VALID,0,VALID,95.8035,VALID,0,VALID,19.2363,VALID,110,VALID,0.367578,
2014-04-27, 03:01:05,VALID,916.403,VALID,0,VALID,95.8187,VALID,0,VALID,19.2558,VALID,110,VALID,0.324219,
2014-04-27, 03:02:05,VALID,916.412,VALID,0,VALID,95.8111,VALID,0.107441,VALID,19.2348,VALID,110,VALID,0.0734375,
2014-04-27, 03:03:05,VALID,916.373,VALID,0,VALID,95.8263,VALID,0.107441,VALID,19.2753,VALID,110,VALID,0.544141,
2014-04-27, 03:04:05,VALID,916.382,VALID,0,VALID,95.8263,VALID,0,VALID,19.2543,VALID,110,VALID,0.367578,
2014-04-27, 03:05:05,VALID,916.38,VALID,0,VALID,95.8111,VALID,0,VALID,19.2738,VALID,110,VALID,0.267188,
2014-04-27, 03:06:05,VALID,916.398,VALID,0,VALID,95.7958,VALID,0,VALID,19.2933,VALID,110,VALID,0.199609,
2014-04-27, 03:07:05,VALID,916.356,VALID,0,VALID,95.7882,VALID,0.107441,VALID,19.3128,VALID,110,VALID,0.421484,
2014-04-27, 03:08:05,VALID,916.353,VALID,0,VALID,95.7654,VALID,0.107441,VALID,19.3323,VALID,110,VALID,0.615625,
2014-04-27, 03:09:05,VALID,916.357,VALID,0,VALID,95.7196,VALID,0.107441,VALID,19.3518,VALID,110,VALID,0.933984,
2014-04-27, 03:10:05,VALID,916.342,VALID,0,VALID,95.6662,VALID,0.107441,VALID,19.3908,VALID,108,VALID,0.833984,
2014-04-27, 03:11:05,VALID,916.385,VALID,0,VALID,95.6281,VALID,0,VALID,19.3908,VALID,134,VALID,0.867188,
2014-04-27, 03:12:05,VALID,916.354,VALID,0,VALID,95.5367,VALID,0,VALID,19.4118,VALID,136,VALID,0.728125,
2014-04-27, 03:13:05,VALID,916.379,VALID,0,VALID,95.4757,VALID,0,VALID,19.4508,VALID,140,VALID,1.20703,
2014-04-27, 03:14:05,VALID,916.336,VALID,0,VALID,95.4223,VALID,0,VALID,19.4883,VALID,138,VALID,1.00625,
2014-04-27, 03:15:05,VALID,916.34,VALID,0,VALID,95.3766,VALID,0.107441,VALID,19.4898,VALID,129,VALID,1.18164,
2014-04-27, 03:16:05,VALID,916.344,VALID,0,VALID,95.3232,VALID,0,VALID,19.4688,VALID,109,VALID,0.965625,
2014-04-27, 03:17:05,VALID,916.343,VALID,0,VALID,95.2317,VALID,0,VALID,19.4298,VALID,109,VALID,0.705078,
2014-04-27, 03:18:05,VALID,916.341,VALID,0,VALID,95.125,VALID,0,VALID,19.3713,VALID,109,VALID,0.466016,
2014-04-27, 03:19:05,VALID,916.34,VALID,0,VALID,95.0488,VALID,0.107441,VALID,19.3338,VALID,109,VALID,0.616797,
2014-04-27, 03:20:05,VALID,916.325,VALID,0,VALID,95.1402,VALID,0,VALID,19.2933,VALID,109,VALID,0.528125,
2014-04-27, 03:21:05,VALID,916.326,VALID,0,VALID,95.1631,VALID,0,VALID,19.2948,VALID,109,VALID,0.552734,
2014-04-27, 03:22:05,VALID,916.331,VALID,0,VALID,95.2165,VALID,0,VALID,19.2933,VALID,109,VALID,0.696484,
2014-04-27, 03:23:05,VALID,916.328,VALID,0,VALID,95.3232,VALID,0.107441,VALID,19.2933,VALID,109,VALID,0.775,
2014-04-27, 03:24:05,VALID,916.315,VALID,0,VALID,95.3613,VALID,0,VALID,19.3518,VALID,110,VALID,1.01797,
2014-04-27, 03:25:05,VALID,916.299,VALID,0,VALID,95.3156,VALID,0,VALID,19.4103,VALID,112,VALID,0.620313,
2014-04-27, 03:26:05,VALID,916.289,VALID,0,VALID,95.2317,VALID,0.107441,VALID,19.4493,VALID,111,VALID,1.04492,
2014-04-27, 03:27:05,VALID,916.3,VALID,0,VALID,95.1783,VALID,0,VALID,19.4493,VALID,111,VALID,0.999609,
2014-04-27, 03:28:05,VALID,916.276,VALID,0,VALID,95.0488,VALID,0,VALID,19.5078,VALID,111,VALID,0.937109,
2014-04-27, 03:29:05,VALID,916.322,VALID,0,VALID,94.9268,VALID,0.107441,VALID,19.5483,VALID,111,VALID,0.859766,
2014-04-27, 03:30:05,VALID,916.338,VALID,0,VALID,94.7896,VALID,0,VALID,19.5468,VALID,117,VALID,0.825391,
2014-04-27, 03:31:05,VALID,916.34,VALID,0,VALID,94.6905,VALID,0,VALID,19.5468,VALID,122,VALID,0.728125,
2014-04-27, 03:32:05,VALID,916.346,VALID,0,VALID,94.5685,VALID,0,VALID,19.5078,VALID,122,VALID,0.695703,
2014-04-27, 03:33:05,VALID,916.356,VALID,0,VALID,94.4694,VALID,0,VALID,19.5093,VALID,122,VALID,0.655469,
2014-04-27, 03:34:05,VALID,916.379,VALID,0,VALID,94.477,VALID,0.107441,VALID,19.4883,VALID,122,VALID,0.816016,
2014-04-27, 03:35:05,VALID,916.374,VALID,0,VALID,94.4922,VALID,0,VALID,19.4898,VALID,126,VALID,0.941797,
2014-04-27, 03:36:05,VALID,916.36,VALID,0,VALID,94.477,VALID,0.107441,VALID,19.4493,VALID,129,VALID,0.958984,
2014-04-27, 03:37:05,VALID,916.348,VALID,0,VALID,94.4541,VALID,0,VALID,19.4688,VALID,134,VALID,1.05664,
2014-04-27, 03:38:05,VALID,916.368,VALID,0,VALID,94.4465,VALID,0,VALID,19.4883,VALID,138,VALID,1.15781,
2014-04-27, 03:39:05,VALID,916.36,VALID,0,VALID,94.3931,VALID,0.107441,VALID,19.5093,VALID,138,VALID,1.00391,
2014-04-27, 03:40:05,VALID,916.335,VALID,0,VALID,94.3245,VALID,0,VALID,19.5078,VALID,138,VALID,0.775781,
2014-04-27, 03:41:05,VALID,916.369,VALID,0,VALID,94.2788,VALID,0,VALID,19.4883,VALID,139,VALID,0.726172,
2014-04-27, 03:42:05,VALID,916.312,VALID,0,VALID,94.2483,VALID,0.107441,VALID,19.4493,VALID,139,VALID,0.821484,
2014-04-27, 03:43:05,VALID,916.303,VALID,0,VALID,94.233,VALID,0,VALID,19.4523,VALID,139,VALID,0.8375,